Weather History for KMXF - May, 2014

Change the Weather History Date:

Tuesday, May 6, 2014

  Actual Average Record
Temperature  
Mean Temperature 76 °F -  
Max Temperature 88 °F 82 °F 91 °F (2003)
Min Temperature 66 °F 60 °F 45 °F (2013)
Cooling Degree Days 10    
Growing Degree Days 26 (Base 50)    
Moisture  
Dew Point 60 °F    
Average Humidity 62    
Maximum Humidity 96    
Minimum Humidity 36    
Precipitation  
Precipitation 0.00 in - - ()
Sea Level Pressure  
Sea Level Pressure 29.99 in    
Wind  
Wind Speed 3 mph (SW)    
Max Wind Speed 7 mph    
Max Gust Speed -    
Visibility 10 miles    
Events      
Averages and records for this station are not official NWS values.
T = Trace of Precipitation, MM = Missing Value Source: NWS Daily Summary

Daily Weather History Graph

Daily Weather History Graph

Search for Another Location

Airport or City:

Trip Planner

Search our weather history database for the weather conditions in past years. The results will help you decide how hot, cold, wet, or windy it might be!

Date:

Astronomy

May. 06, 2014 Rise Set
Actual Time 5:54 AM CDT 7:30 PM CDT
Civil Twilight 5:27 AM CDT 7:56 PM CDT
Nautical Twilight 4:56 AM CDT 8:28 PM CDT
Astronomical Twilight 4:22 AM CDT 9:01 PM CDT
Moon 12:05 PM CDT (5/6) 12:52 AM CDT (5/6)
Length of Visible Light 14h 28m
Length of Day
13h 35m
Waxing Crescent, 46% of the Moon is Illuminated
May 6
Waxing Crescent
May 6
First Quarter
May 14
Full
May 21
Last Quarter
May 28
New

Hourly Weather History & Observations

Time (CDT) Temp. Heat Index Dew Point Humidity Pressure Visibility Wind Dir Wind Speed Gust Speed Precip Events Conditions
12:58 AM 76.1 °F - 68.5 °F 77% 29.98 in 10.0 mi WSW 1.2 mph - N/A   Clear
1:58 AM 73.4 °F - 68.4 °F 84% 29.96 in 10.0 mi NNW 1.2 mph - N/A   Clear
3:58 AM 69.8 °F - 68.0 °F 94% 29.96 in 10.0 mi Calm Calm - N/A   Clear
4:58 AM 69.3 °F - 68.2 °F 96% 29.98 in 10.0 mi SSW 1.2 mph - N/A   Clear
7:58 AM 71.4 °F - 57.7 °F 62% 30.04 in 10.0 mi SSW 4.6 mph - N/A   Clear
8:58 AM 75.0 °F - 57.7 °F 55% 30.05 in 10.0 mi Variable 4.6 mph - N/A   Clear
9:58 AM 79.3 °F - 57.9 °F 48% 30.05 in 10.0 mi West 4.6 mph - N/A   Clear
10:58 AM 76.8 °F - 59.2 °F 54% 30.05 in 10.0 mi Variable 3.5 mph - N/A   Clear
11:58 AM 79.3 °F - 57.7 °F 47% 30.04 in 10.0 mi Variable 3.5 mph - N/A   Clear
12:58 PM 80.6 °F 80.9 °F 57.9 °F 46% 30.01 in 10.0 mi Variable 4.6 mph - N/A   Clear
1:58 PM 82.4 °F 82.5 °F 59.0 °F 45% 29.99 in 10.0 mi SSW 6.9 mph - N/A   Clear
3:58 PM 84.7 °F 83.6 °F 55.8 °F 37% 29.96 in 10.0 mi SW 5.8 mph - N/A   Clear
4:58 PM 85.3 °F 83.9 °F 55.6 °F 36% 29.96 in 10.0 mi SSW 4.6 mph - N/A   Clear
5:58 PM 84.2 °F 82.9 °F 54.9 °F 36% 29.95 in 10.0 mi SSW 5.8 mph - N/A   Clear
6:58 PM 81.9 °F 81.3 °F 55.0 °F 40% 29.96 in 10.0 mi SW 1.2 mph - N/A   Clear
7:58 PM 72.7 °F - 60.4 °F 65% 29.96 in 10.0 mi Calm Calm - N/A   Clear
8:58 PM 69.3 °F - 63.1 °F 81% 29.97 in 10.0 mi Calm Calm - N/A   Clear
9:58 PM 66.4 °F - 63.1 °F 89% 29.98 in 6.0 mi Calm Calm - N/A   Clear
10:58 PM 67.3 °F - 62.2 °F 84% 30.00 in 9.0 mi SSW 4.6 mph - N/A   Clear
11:58 PM 68.4 °F - 58.1 °F 70% 30.01 in 10.0 mi SSW 3.5 mph - N/A   Clear